Home   Weather   Minot   Past weeks

Flag for USA Past Weather in Minot, North Dakota, USA — Yesterday and Last 2 Weeks

Now
82 °F

Partly sunny.


Feels Like: 80 °F
Forecast: 61 / 86 °F
Wind: 9 mph from East

Location: Minot International Airport

Current Time: Aug 30, 2016 at 7:39:56 PM

Latest Report: Aug 30, 2016 at 6:54 PM


Visibility: 10 mi

Pressure: 30.16 "Hg

Humidity: 29%

Dew Point: 47 °F

Location of MinotLocation

Past Weather in Minot — Graph

°F

Minot Temperature Yesterday

Maximum temperature yesterday: 79 °F (at 4:54 PM)
Minimum temperature yesterday: 54 °F (at 6:54 AM)
Average temperature yesterday: 66 °F

High & Low Weather Summary for the Past Weeks

 TemperatureHumidityPressure
High98 °F (Aug 17, 3:54 PM)100% (Aug 23, 2:54 AM)30.27 "Hg (Aug 23, 2:54 AM)
Low48 °F (Aug 30, 6:54 AM)20% (Aug 22, 3:54 PM)29.54 "Hg (Aug 22, 4:54 PM)
Average69 °F56%29.93 "Hg
* Reported Aug 15 5:54 PM — Aug 30 5:54 PM, Minot, Weather by CustomWeather, © 2016

Note: Actual official high and low records may vary slightly from our data, if they occured in-between our weather recording intervals... More about our weather records

Advertising

Minot Weather History for the Previous 24 Hours

Scroll right to see more
 ConditionsComfort  
Time TempWeatherWind HumidityBarometerVisibility
5:54 PM
Tue, Aug 30
82 °FScattered clouds.10 mph29%30.16 "Hg10 mi
4:54 PM82 °FSunny.13 mph27%30.17 "Hg10 mi
3:54 PM82 °FSunny.10 mph26%30.18 "Hg10 mi
2:54 PM83 °FSunny.9 mph26%30.19 "Hg10 mi
1:54 PM81 °FSunny.12 mph26%30.22 "Hg10 mi
12:54 PM80 °FSunny.10 mph25%30.22 "Hg10 mi
11:54 AM76 °FSunny.9 mph36%30.23 "Hg10 mi
10:54 AM70 °FSunny.7 mph44%30.26 "Hg10 mi
9:54 AM64 °FSunny.5 mph56%30.27 "Hg10 mi
8:54 AM58 °FSunny.3 mph72%30.27 "Hg10 mi
7:54 AM50 °FClear.No wind83%30.26 "Hg10 mi
6:54 AM48 °FClear.5 mph89%30.25 "Hg10 mi
5:54 AM53 °FClear.3 mph80%30.24 "Hg10 mi
4:54 AM53 °FClear.No wind77%30.23 "Hg10 mi
3:54 AM54 °FClear.3 mph77%30.23 "Hg10 mi
2:54 AM56 °FClear.No wind72%30.22 "Hg10 mi
1:54 AM53 °FClear.No wind77%30.23 "Hg10 mi
12:54 AM61 °FClear.5 mph60%30.24 "Hg10 mi
11:54 PM
Mon, Aug 29
61 °FClear.3 mph60%30.24 "Hg10 mi
10:54 PM62 °FClear.3 mph58%30.24 "Hg10 mi
9:54 PM61 °FClear.No wind58%30.24 "Hg10 mi
8:54 PM65 °FSunny.7 mph51%30.22 "Hg10 mi
7:54 PM74 °FSunny.3 mph37%30.22 "Hg10 mi
Weather by CustomWeather, © 2016

See weather overviewHow to use our weather pages